Location: Black River Observatory
(43.1000°N, 82.6200°W)
Time: 13:05:40
(UTC-05:00)

Daily predictions for brighter satellites

Satellite Brightness Start Highest point End
(mag) Time Altitude Azimuth Time Altitude Azimuth Time Altitude Azimuth
Cosmos 614 Rocket 3.9 18:38:17 10° SSW 18:43:19 74° ESE 18:48:24 10° NNE
Cosmos 2297 Rocket 3.8 18:42:19 10° ESE 18:44:32 12° E 18:46:45 10° ENE
Cosmos 405 Rocket 4.2 18:43:25 10° NNE 18:46:22 19° ENE 18:49:17 10° ESE
Cosmos 1140 Rocket 3.7 18:41:54 10° SSW 18:47:02 79° WNW 18:52:14 10° NNE
Cosmos 2333 4.3 18:41:30 10° NNW 18:47:12 60° ENE 18:52:53 10° SE
Cosmos 1741 Rocket 4.0 18:42:43 10° S 18:47:52 65° ESE 18:53:03 10° NNE
COSMO-SKYMED 1 2.7 18:44:55 10° N 18:49:17 82° WNW 18:53:37 10° SSW
Cosmos 2219 Rocket 2.6 18:45:26 10° NNW 18:50:45 42° ENE 18:56:02 10° SE
Cosmos 2237 4.3 18:45:00 10° NNW 18:50:47 90° ENE 18:56:30 10° SSE
COSMOS 2428 2.7 18:45:30 10° NNW 18:51:13 73° ENE 18:56:54 10° SSE
ALOS 3.0 18:47:07 10° SE 18:51:17 33° ENE 18:55:27 10° N
Cosmos 2360 Rocket 3.2 18:46:46 10° NNW 18:52:16 53° WSW 18:57:44 10° S
Meteor 1-19 Rocket 4.3 18:47:13 10° N 18:52:58 87° ENE 18:58:47 10° S
H-2A R/B 4.1 18:51:05 10° ESE 18:53:45 19° ENE 18:56:28 10° NNE
Meteor 2-4 Rocket 3.6 18:53:29 10° N 18:58:58 70° ENE 19:04:18 10° SSE
USA 229 DEB 3.8 18:52:34 10° NW 18:59:43 76° NE 19:06:58 10° SE
USA 229 3.8 18:52:40 10° NW 18:59:49 75° NE 19:07:04 10° SE
SJ-6B 2.9 18:56:15 10° SSE 19:00:05 52° ENE 19:03:51 10° N
Cosmos 2227 Rocket 3.1 19:00:27 10° SSE 19:04:59 25° ESE 19:09:32 10° NE
Cosmos 2219 3.2 18:59:56 10° SSW 19:05:41 82° ESE 19:11:27 10° NNE
BREEZE-M DEB (TANK) 3.2 19:04:26 10° WNW 19:07:18 66° NNE 19:15:00 10° ESE
Cosmos 1570 Rocket 4.3 19:02:50 10° NNW 19:08:04 74° WSW 19:13:16 10° SSE
Cosmos 468 Rocket 4.4 19:03:06 10° N 19:08:09 44° ENE 19:13:10 10° SE
Meteor 1-23 Rocket 4.2 19:04:18 10° N 19:10:07 71° ENE 19:15:49 10° SSE
Resurs 01 Rocket 2.2 19:06:28 10° SE 19:10:30 37° ENE 19:14:33 10° N
USA 215 4.2 19:06:17 10° NE 19:12:22 43° NNW 19:18:26 10° W
SL-08 ROCKET BODY 4.4 19:07:26 10° S 19:13:34 70° E 19:19:45 10° NNE
NOAA 12 4.3 19:08:55 10° S 19:14:14 80° WSW 19:19:37 10° NNW
Gbstr 26 Del rocket 3.7 19:10:37 10° W 19:14:16 40° NNW 19:17:50 10° NE
Cosmos 1025 Rocket 3.0 19:10:05 10° N 19:14:29 69° E 19:18:52 10° SSE
Resurs 1-3 4.2 19:12:06 10° SE 19:16:05 35° ENE 19:20:06 10° N
ATLAS 2AS CENTAUR R/B 4.4 19:10:24 10° NNW 19:16:28 22° NNE 19:21:49 12° ENE
Spot 2 Rocket 3.8 19:12:08 10° SE 19:16:55 44° ENE 19:21:45 10° N
Okean 1 Rocket 3.6 19:13:24 10° SSW 19:17:52 66° W 19:22:20 10° N
SL-16 R/B 3.5 19:14:12 10° N 19:18:28 21° NE 19:21:05 16° E
Cosmos 1892 Rocket 3.9 19:16:10 10° N 19:20:19 41° ENE 19:24:28 10° SSE
FREGAT/IRIS 2.8 19:18:20 10° S 19:21:25 75° W 19:24:31 10° NNW
Atlas Centaur 2 4.3 19:21:43 10° SSW 19:26:33 18° SSE 19:30:22 12° SE
GPS 2-04 Rocket1 4.2 19:23:06 10° WSW 19:26:47 29° S 19:29:35 15° SE
NOSS 3-1 (C) 4.1 19:21:39 10° NNW 19:29:02 59° NE 19:36:32 13° SE
Abrixas rocket 2.9 19:27:17 10° W 19:30:34 50° NNW 19:32:36 20° NE
Meteor 2-13 Rocket 4.5 19:24:51 10° SSE 19:30:44 55° E 19:36:41 10° NNE
OTV 4 1.9 19:28:21 10° SW 19:30:51 24° S 19:31:45 21° SE
Cosmos 1814 Rocket 4.1 19:26:31 10° N 19:31:33 52° ENE 19:36:32 10° SE
Okean 2 3.3 19:28:01 10° N 19:32:12 74° E 19:36:23 10° SSE
Cosmos 1536 3.8 19:28:36 10° SSW 19:32:28 50° WNW 19:36:22 10° N
Envisat 4.2 19:32:28 21° E 19:33:45 23° ENE 19:37:38 10° NNE
FENGYUN 3A 3.6 19:28:30 10° SSE 19:33:55 83° ENE 19:39:22 10° NNW
Cosmos 2074 Rocket 4.0 19:30:52 10° S 19:37:08 87° W 19:43:28 10° N
HJ-1C 3.5 19:36:33 10° S 19:39:54 76° WSW 19:43:18 10° NNW
Cosmos 1980 3.6 19:35:47 10° NNW 19:41:25 67° ENE 19:46:48 11° SE
NOSS 0 Rocket 3.9 19:36:16 10° NNW 19:42:28 85° ENE 19:48:37 10° SSE
USA 186 3.6 19:45:05 15° NNE 19:45:05 15° NNE 19:45:47 10° NNE
Cosmos 1544 Rocket 3.5 19:39:15 10° S 19:43:29 59° E 19:47:45 10° NNE
Cosmos 2333 Rocket 2.2 19:39:07 10° NNW 19:44:54 88° ENE 19:50:41 10° SSE
Cosmos 2184 Rocket 4.2 19:39:34 10° SSW 19:45:52 78° W 19:52:08 10° N
Helios 1B rocket 2.9 19:42:29 10° NNE 19:46:20 36° E 19:50:10 10° SSE
USA 32 4.4 19:43:30 10° N 19:48:24 39° E 19:51:05 23° SE
Aureole 2 Rocket 4.0 19:46:59 10° N 19:48:31 19° NNE 19:48:31 19° NNE
Helios 1A 3.0 19:52:56 28° SE 19:54:54 56° ENE 19:58:59 10° N
Cosmos 1437 2.6 19:52:17 10° N 19:55:36 86° E 19:56:58 32° SSE
Cosmos 1975 2.9 19:52:12 10° S 19:56:07 53° E 20:00:06 10° NNE
Cosmos 1602 Rocket 4.2 19:54:01 10° N 19:57:52 36° ENE 19:57:52 36° ENE
Cosmos 1500 3.2 19:54:38 10° S 19:58:19 52° E 20:02:00 10° NNE
Nadezhda 3 Rocket 3.9 19:55:19 10° N 20:01:31 76° E 20:07:43 10° SSE
Cosmos 1626 Rocket 4.0 19:57:59 10° N 20:02:06 41° ENE 20:02:06 41° ENE
Cosmos 1515 3.6 19:59:51 10° N 20:03:44 84° E 20:05:38 29° S
Cosmos 1486 Rocket 3.9 19:59:38 10° S 20:04:55 69° ESE 20:10:13 10° NNE
Cosmos 2082 3.6 20:02:55 10° SSW 20:08:37 74° ESE 20:14:20 10° NNE
Cosmos 841 Rocket 3.4 20:03:53 10° NNW 20:09:00 64° ENE 20:10:38 42° SE
Spot 1 3.9 20:11:15 32° SSE 20:13:07 86° WSW 20:17:23 10° NNW
ATLAS CENTAUR R/B 2.3 20:10:58 10° SW 20:13:24 35° SW 20:13:24 35° SW
Cosmos 2154 Rocket 4.0 20:09:18 10° S 20:15:40 86° W 20:22:02 10° N
Cosmos 540 Rocket 4.3 20:11:21 10° N 20:15:14 32° NE 20:15:14 32° NE
Cosmos 2341 Rocket 3.9 20:11:18 10° S 20:17:38 75° E 20:24:02 10° N
Cosmos 1763 Rocket 3.4 20:12:37 10° NNW 20:17:48 88° WSW 20:20:13 33° SSE
Cosmos 1455 Rocket 3.3 20:16:21 10° SSW 20:20:42 67° W 20:25:02 10° N
Cosmos 2237 Rocket 2.7 20:20:03 10° NNW 20:25:40 60° WSW 20:29:45 19° S
Cosmos 332 Rocket 3.8 20:21:58 10° NNW 20:26:54 83° WSW 20:28:03 53° S
Meteor 2-8 Rocket 4.3 20:21:21 10° N 20:27:28 80° E 20:30:43 29° SSE
Cosmos 2297 Rocket 2.1 20:22:01 10° SSW 20:27:41 90° SE 20:33:23 10° NNE
ALOS 4.4 20:24:48 10° SSW 20:28:44 27° W 20:32:41 10° NW
OAO 3 Rocket 4.5 20:24:39 10° SW 20:28:19 28° S 20:28:19 28° S
Meteor 2-19 Rocket 4.3 20:23:27 10° S 20:29:31 66° E 20:35:38 10° NNE
Cosmos 1066 Rocket 4.2 20:27:42 10° NNW 20:33:19 80° W 20:36:02 31° S
Cosmos 2219 Rocket 4.0 20:29:43 10° NW 20:34:30 30° WSW 20:39:17 10° SSW
Cosmos 371 Rocket 3.2 20:30:44 10° NNW 20:35:39 90° WSW 20:35:46 86° SSE
Cosmos 836 Rocket 4.5 20:39:14 10° NNW 20:44:06 74° NNE 20:44:06 74° NNE
SJ-11-01 4.5 20:45:58 68° NNW 20:45:58 68° NNW 20:50:09 10° NNW
Resurs 01 Rocket 4.0 20:43:41 10° SW 20:47:04 21° W 20:50:28 10° NW
Cosmos 2227 Rocket 3.0 20:43:14 10° SW 20:48:41 49° WNW 20:54:12 10° NNE
Meteor 1-21 4.4 20:54:57 10° N 20:59:47 65° N 20:59:47 65° N
GEOS 3 Rocket 4.0 21:01:29 52° N 21:02:22 60° NW 21:07:33 10° SW
ERS-1 Rocket 4.0 21:05:00 38° NNW 21:05:00 38° NNW 21:08:07 10° NNW
SL-16 R/B 2.4 20:57:28 10° NNW 21:03:01 69° WSW 21:03:01 69° WSW
Cosmos 2218 Rocket 4.3 21:04:40 57° NNE 21:04:40 57° NNE 21:09:32 10° N
NOSS 3-1 (A) 4.4 20:55:54 10° NW 21:03:25 60° WSW 21:06:35 38° S
ATLAS 2AS CENTAUR R/B 3.2 21:01:27 10° NNW 21:09:17 56° NE 21:09:17 56° NE
Envisat 3.8 21:12:39 47° W 21:12:39 47° W 21:17:21 10° NNW
Atlas Centaur 2 4.2 21:09:33 10° SW 21:13:02 21° SSW 21:13:02 21° SSW
